Radiation Dose at Monitoring Post of Fukushima Daini Nuclear Power Station
Date,Time,MP-1(microSv/h),MP-2(microSv/h),MP-3(microSv/h),MP-4(microSv/h),MP-5(microSv/h),MP-6(microSv/h),MP-7(microSv/h),Wind Direction,Wind Velocity(m/s),Rain
2022/09/03,00:00,0.147,0.138,0.213,0.206,0.210,0.118,0.075,west-southwest,1.0,No
2022/09/03,00:10,0.149,0.137,0.215,0.208,0.211,0.117,0.074,west-northwest,0.6,No
2022/09/03,00:20,0.148,0.136,0.214,0.209,0.210,0.116,0.076,west-southwest,0.7,No
2022/09/03,00:30,0.146,0.138,0.213,0.206,0.208,0.117,0.075,-,CALM,No
2022/09/03,00:40,0.149,0.137,0.214,0.209,0.211,0.116,0.075,south-southwest,0.6,No
2022/09/03,00:50,0.147,0.137,0.213,0.207,0.209,0.117,0.076,-,CALM,No
2022/09/03,01:00,0.146,0.137,0.215,0.205,0.210,0.117,0.075,-,CALM,No
2022/09/03,01:10,0.149,0.137,0.215,0.208,0.212,0.116,0.075,-,CALM,No
2022/09/03,01:20,0.149,0.135,0.212,0.208,0.210,0.117,0.075,-,CALM,No
2022/09/03,01:30,0.147,0.137,0.215,0.205,0.209,0.118,0.075,-,CALM,No
2022/09/03,01:40,0.148,0.137,0.214,0.209,0.212,0.118,0.075,-,CALM,No
2022/09/03,01:50,0.147,0.137,0.214,0.207,0.211,0.117,0.076,-,CALM,No
2022/09/03,02:00,0.147,0.137,0.216,0.207,0.209,0.117,0.075,-,CALM,No
2022/09/03,02:10,0.150,0.137,0.214,0.207,0.212,0.117,0.076,-,CALM,No
2022/09/03,02:20,0.148,0.139,0.214,0.205,0.210,0.117,0.075,northeast,1.4,No
2022/09/03,02:30,0.148,0.138,0.216,0.208,0.211,0.118,0.076,north,1.3,Yes
2022/09/03,02:40,0.149,0.137,0.214,0.208,0.212,0.117,0.077,north,1.9,Yes
2022/09/03,02:50,0.148,0.139,0.214,0.207,0.209,0.117,0.076,north,2.4,Yes
2022/09/03,03:00,0.148,0.138,0.216,0.209,0.211,0.118,0.075,north-northeast,1.6,Yes
2022/09/03,03:10,0.148,0.138,0.214,0.209,0.213,0.118,0.076,northeast,1.8,Yes
2022/09/03,03:20,0.147,0.139,0.216,0.209,0.210,0.118,0.076,north-northeast,1.5,No
2022/09/03,03:30,0.150,0.137,0.215,0.209,0.212,0.119,0.076,-,CALM,No
2022/09/03,03:40,0.149,0.140,0.215,0.206,0.213,0.117,0.076,north-northeast,3.5,No
2022/09/03,03:50,0.147,0.138,0.215,0.209,0.209,0.119,0.076,north-northwest,3.7,No
2022/09/03,04:00,0.149,0.138,0.214,0.209,0.213,0.118,0.076,north-northwest,4.0,No
2022/09/03,04:10,0.148,0.138,0.215,0.208,0.212,0.118,0.077,north-northwest,4.4,No
2022/09/03,04:20,0.148,0.138,0.216,0.209,0.211,0.118,0.076,north-northwest,4.3,No
2022/09/03,04:30,0.151,0.139,0.214,0.208,0.213,0.118,0.077,north,2.4,No
2022/09/03,04:40,0.149,0.138,0.216,0.208,0.211,0.118,0.076,north-northwest,3.8,No
2022/09/03,04:50,0.148,0.138,0.214,0.209,0.210,0.118,0.076,north-northwest,3.5,No
2022/09/03,05:00,0.150,0.139,0.215,0.208,0.213,0.118,0.077,north-northwest,3.5,No
2022/09/03,05:10,0.148,0.138,0.215,0.209,0.212,0.118,0.076,north-northwest,3.3,No
2022/09/03,05:20,0.149,0.137,0.214,0.209,0.210,0.118,0.076,north-northwest,3.1,No
2022/09/03,05:30,0.150,0.138,0.216,0.207,0.212,0.118,0.077,north-northwest,2.7,No
2022/09/03,05:40,0.147,0.137,0.215,0.209,0.210,0.118,0.076,northwest,3.0,No
2022/09/03,05:50,0.149,0.139,0.214,0.207,0.210,0.118,0.076,northwest,2.7,No
2022/09/03,06:00,0.149,0.138,0.217,0.206,0.213,0.118,0.076,northwest,2.7,No
2022/09/03,06:10,0.147,0.137,0.215,0.209,0.210,0.118,0.075,northwest,2.1,No
2022/09/03,06:20,0.148,0.138,0.215,0.207,0.210,0.118,0.076,north-northwest,1.2,No
2022/09/03,06:30,0.148,0.138,0.215,0.207,0.212,0.118,0.076,west-northwest,1.2,No
2022/09/03,06:40,0.147,0.137,0.214,0.209,0.210,0.118,0.075,northwest,1.5,No
2022/09/03,06:50,0.148,0.138,0.215,0.207,0.209,0.118,0.076,northwest,0.9,No
2022/09/03,07:00,0.149,0.137,0.216,0.206,0.212,0.117,0.075,northwest,1.4,No
2022/09/03,07:10,0.147,0.137,0.213,0.210,0.209,0.117,0.074,north-northwest,0.9,No
2022/09/03,07:20,0.147,0.138,0.212,0.207,0.209,0.118,0.075,north-northwest,1.8,No
2022/09/03,07:30,0.149,0.138,0.216,0.205,0.211,0.118,0.075,north-northwest,2.3,No
2022/09/03,07:40,0.148,0.137,0.214,0.209,0.212,0.117,0.075,north-northwest,1.2,No
2022/09/03,07:50,0.147,0.136,0.213,0.209,0.210,0.117,0.075,northwest,1.9,No
2022/09/03,08:00,0.148,0.138,0.213,0.207,0.209,0.118,0.076,north-northwest,1.2,No
2022/09/03,08:10,0.148,0.137,0.216,0.205,0.209,0.118,0.076,north,1.6,No
2022/09/03,08:20,0.148,0.137,0.215,0.206,0.212,0.116,0.076,north,1.3,No
2022/09/03,08:30,0.147,0.137,0.213,0.209,0.210,0.116,0.076,north,1.1,No
2022/09/03,08:40,0.148,0.138,0.212,0.208,0.210,0.118,0.075,north,1.2,No
2022/09/03,08:50,0.149,0.138,0.215,0.207,0.209,0.117,0.076,north,1.0,No
2022/09/03,09:00,0.147,0.138,0.216,0.205,0.208,0.117,0.076,northeast,2.0,No
2022/09/03,09:10,0.146,0.137,0.215,0.208,0.211,0.116,0.075,northeast,1.6,No
2022/09/03,09:20,0.148,0.136,0.213,0.209,0.212,0.117,0.075,north-northeast,1.5,No
2022/09/03,09:30,0.148,0.138,0.213,0.208,0.210,0.117,0.075,north,1.3,No
2022/09/03,09:40,0.147,0.138,0.213,0.207,0.210,0.117,0.074,north,1.8,Yes
2022/09/03,09:50,0.147,0.137,0.214,0.206,0.208,0.118,0.076,northeast,0.9,Yes
2022/09/03,10:00,0.147,0.137,0.215,0.204,0.209,0.116,0.076,north-northeast,0.9,No
2022/09/03,10:10,0.149,0.137,0.213,0.206,0.209,0.118,0.075,north-northeast,0.8,No
2022/09/03,10:20,0.148,0.138,0.213,0.208,0.209,0.117,0.075,northeast,1.2,No
2022/09/03,10:30,0.147,0.137,0.212,0.208,0.210,0.117,0.075,east-northeast,0.8,No
2022/09/03,10:40,0.146,0.137,0.212,0.208,0.209,0.117,0.075,north-northeast,1.1,No
2022/09/03,10:50,0.147,0.136,0.213,0.207,0.209,0.118,0.075,north-northeast,1.6,No
2022/09/03,11:00,0.148,0.137,0.212,0.207,0.210,0.118,0.075,northeast,1.5,No
2022/09/03,11:10,0.149,0.137,0.213,0.206,0.210,0.117,0.075,northeast,1.8,No
2022/09/03,11:20,0.148,0.136,0.213,0.206,0.209,0.118,0.075,northeast,1.6,No
2022/09/03,11:30,0.147,0.137,0.214,0.207,0.209,0.117,0.075,northeast,1.2,No
2022/09/03,11:40,0.147,0.138,0.212,0.206,0.210,0.118,0.075,northeast,1.6,No
2022/09/03,11:50,0.145,0.139,0.214,0.206,0.209,0.117,0.074,northeast,2.5,No
2022/09/03,12:00,0.148,0.138,0.218,0.206,0.210,0.116,0.074,northeast,2.4,No
2022/09/03,12:10,0.149,0.137,0.216,0.207,0.210,0.118,0.075,north-northeast,1.7,No
2022/09/03,12:20,0.148,0.137,0.215,0.210,0.212,0.118,0.076,north-northeast,2.4,No
2022/09/03,12:30,0.148,0.135,0.214,0.209,0.213,0.118,0.075,north-northeast,2.3,No
2022/09/03,12:40,0.147,0.137,0.213,0.208,0.211,0.118,0.075,north-northeast,2.6,No
2022/09/03,12:50,0.147,0.138,0.213,0.208,0.210,0.117,0.076,north-northeast,2.6,No
2022/09/03,13:00,0.149,0.138,0.213,0.208,0.210,0.118,0.075,north-northeast,2.3,No
2022/09/03,13:10,0.149,0.137,0.217,0.207,0.210,0.117,0.075,north-northeast,3.0,No
2022/09/03,13:20,0.147,0.137,0.218,0.206,0.209,0.118,0.075,north-northeast,3.1,No
2022/09/03,13:30,0.146,0.137,0.215,0.208,0.210,0.117,0.075,northeast,2.8,No
2022/09/03,13:40,0.146,0.137,0.215,0.210,0.209,0.118,0.075,north-northeast,2.8,No
2022/09/03,13:50,0.149,0.138,0.213,0.210,0.208,0.119,0.075,northeast,2.3,No
2022/09/03,14:00,0.148,0.138,0.213,0.209,0.210,0.119,0.076,northeast,2.5,No
2022/09/03,14:10,0.149,0.138,0.214,0.208,0.210,0.118,0.076,northeast,2.9,No
2022/09/03,14:20,0.148,0.137,0.214,0.208,0.210,0.118,0.075,northeast,2.1,No
2022/09/03,14:30,0.147,0.137,0.215,0.207,0.211,0.117,0.075,east-northeast,2.7,No
2022/09/03,14:40,0.147,0.137,0.213,0.207,0.210,0.118,0.075,east-northeast,1.5,No
2022/09/03,14:50,0.147,0.137,0.213,0.207,0.212,0.118,0.075,northeast,2.0,No
2022/09/03,15:00,0.147,0.136,0.215,0.207,0.210,0.118,0.075,northeast,2.1,No
2022/09/03,15:10,0.149,0.139,0.218,0.207,0.210,0.118,0.076,northeast,1.9,No
2022/09/03,15:20,0.149,0.138,0.217,0.211,0.214,0.119,0.076,northeast,1.9,No
2022/09/03,15:30,0.148,0.137,0.214,0.210,0.214,0.118,0.075,northeast,1.7,No
2022/09/03,15:40,0.147,0.137,0.214,0.209,0.211,0.118,0.075,east-northeast,1.3,No
2022/09/03,15:50,0.149,0.138,0.216,0.207,0.211,0.117,0.076,north-northeast,1.4,No
2022/09/03,16:00,0.149,0.139,0.217,0.209,0.209,0.118,0.076,northeast,2.1,No
2022/09/03,16:10,0.148,0.138,0.216,0.210,0.211,0.118,0.076,east-northeast,1.7,No
2022/09/03,16:20,0.147,0.137,0.214,0.209,0.214,0.119,0.075,northeast,1.5,No
2022/09/03,16:30,0.148,0.138,0.215,0.207,0.212,0.118,0.075,north-northeast,1.8,No
2022/09/03,16:40,0.149,0.139,0.218,0.209,0.211,0.118,0.076,north-northeast,0.9,No
2022/09/03,16:50,0.148,0.138,0.216,0.210,0.210,0.118,0.076,northeast,1.5,No
2022/09/03,17:00,0.148,0.137,0.214,0.209,0.213,0.119,0.075,north-northeast,1.1,No
2022/09/03,17:10,0.149,0.138,0.216,0.207,0.213,0.117,0.076,northeast,1.0,No
2022/09/03,17:20,0.148,0.138,0.217,0.209,0.211,0.117,0.076,northeast,1.6,No
2022/09/03,17:30,0.148,0.137,0.215,0.210,0.210,0.118,0.076,north-northeast,1.0,No
2022/09/03,17:40,0.148,0.138,0.214,0.209,0.213,0.119,0.076,north-northeast,1.1,No
2022/09/03,17:50,0.150,0.139,0.218,0.208,0.213,0.117,0.075,northeast,1.4,No
2022/09/03,18:00,0.148,0.138,0.217,0.211,0.210,0.118,0.076,north-northeast,1.0,No
2022/09/03,18:10,0.147,0.137,0.215,0.210,0.211,0.118,0.076,north-northeast,0.9,No
2022/09/03,18:20,0.149,0.137,0.215,0.208,0.214,0.117,0.074,-,CALM,No
2022/09/03,18:30,0.149,0.137,0.217,0.210,0.211,0.117,0.075,-,CALM,No
2022/09/03,18:40,0.148,0.137,0.215,0.210,0.210,0.118,0.075,-,CALM,No
2022/09/03,18:50,0.148,0.138,0.215,0.208,0.214,0.119,0.076,-,CALM,No
2022/09/03,19:00,0.150,0.138,0.216,0.210,0.213,0.117,0.076,east-northeast,0.7,No
2022/09/03,19:10,0.148,0.138,0.217,0.210,0.210,0.117,0.076,north-northeast,0.9,No
2022/09/03,19:20,0.148,0.139,0.215,0.208,0.211,0.119,0.076,northwest,0.6,No
2022/09/03,19:30,0.149,0.139,0.217,0.209,0.213,0.117,0.075,north-northwest,0.8,No
2022/09/03,19:40,0.148,0.138,0.216,0.211,0.210,0.117,0.076,-,CALM,No
2022/09/03,19:50,0.148,0.138,0.216,0.209,0.210,0.119,0.076,-,CALM,No
2022/09/03,20:00,0.149,0.139,0.218,0.209,0.214,0.117,0.076,-,CALM,No
2022/09/03,20:10,0.149,0.138,0.216,0.211,0.211,0.118,0.076,-,CALM,No
2022/09/03,20:20,0.148,0.139,0.216,0.210,0.210,0.118,0.076,north-northwest,0.7,No
2022/09/03,20:30,0.148,0.138,0.218,0.209,0.213,0.118,0.075,north,1.1,No
2022/09/03,20:40,0.150,0.138,0.217,0.211,0.213,0.118,0.076,north-northwest,1.5,No
2022/09/03,20:50,0.149,0.139,0.214,0.210,0.210,0.119,0.076,north-northwest,1.2,No
2022/09/03,21:00,0.148,0.139,0.217,0.209,0.212,0.118,0.076,northwest,0.9,No
2022/09/03,21:10,0.149,0.139,0.216,0.211,0.213,0.117,0.076,north-northwest,0.8,No
2022/09/03,21:20,0.149,0.137,0.216,0.209,0.211,0.119,0.076,north-northwest,0.6,No
2022/09/03,21:30,0.147,0.139,0.216,0.209,0.212,0.118,0.075,north,0.8,No
2022/09/03,21:40,0.150,0.138,0.216,0.211,0.214,0.118,0.076,-,CALM,No
2022/09/03,21:50,0.149,0.138,0.215,0.211,0.211,0.117,0.076,north-northwest,0.7,No
2022/09/03,22:00,0.147,0.139,0.218,0.208,0.210,0.119,0.076,north,0.9,No
2022/09/03,22:10,0.150,0.138,0.216,0.211,0.212,0.118,0.076,north,1.1,No
2022/09/03,22:20,0.149,0.138,0.216,0.210,0.213,0.118,0.076,north,0.8,No
2022/09/03,22:30,0.147,0.138,0.218,0.207,0.210,0.119,0.076,-,CALM,No
2022/09/03,22:40,0.149,0.137,0.217,0.211,0.212,0.117,0.076,north-northeast,1.0,No
2022/09/03,22:50,0.149,0.139,0.217,0.210,0.213,0.117,0.076,north-northeast,1.2,No
2022/09/03,23:00,0.149,0.140,0.217,0.209,0.210,0.118,0.076,north-northeast,1.0,No
2022/09/03,23:10,0.151,0.138,0.216,0.210,0.213,0.118,0.076,north-northeast,0.8,No
2022/09/03,23:20,0.150,0.139,0.216,0.209,0.211,0.118,0.076,north-northeast,0.9,No
2022/09/03,23:30,0.148,0.138,0.218,0.209,0.210,0.119,0.076,northeast,1.6,No
2022/09/03,23:40,0.149,0.137,0.215,0.211,0.212,0.119,0.075,-,CALM,No
2022/09/03,23:50,0.149,0.139,0.217,0.210,0.213,0.118,0.076,north-northeast,0.7,No
